Simultaneous Nadir Overpasses (SNOs) Predictions

Prediction of SNOs between AQUA and METOP-B Satellite Orbit:

Table of predicted SNOs for the next 14.0 days since TLE Epoch: 12/11/2021
Index Date (AQUA) Time (AQUA) Lat,Lon (AQUA) SZA (AQUA ) Date (METOP-B) Time (METOP-B) Lat,Lon (METOP-B) SZA (METOP-B ) Distance(km) Time Diff (sec)
1 12/11/2021 11:42:38 73.73, -1.19 96.71 12/11/2021 11:41:45 73.74, -1.30 96.72 3.47 53
2 12/11/2021 12:32:05 -73.81, 166.28 83.21 12/11/2021 12:32:25 -73.81, 166.19 83.21 2.77 20
3 12/11/2021 13:21:46 74.50, -27.68 97.52 12/11/2021 13:22:51 74.51, -24.73 97.47 87.77 65
4 12/14/2021 07:16:56 73.76, 65.18 96.94 12/14/2021 07:16:05 73.77, 65.18 96.95 1.35 51
5 12/14/2021 08:06:23 -73.83,-127.33 82.99 12/14/2021 08:06:45 -73.84,-127.32 82.98 1.36 22
6 12/17/2021 02:51:14 73.74, 131.65 97.06 12/17/2021 02:50:27 73.75, 131.54 97.07 3.38 47
7 12/17/2021 03:40:41 -73.81, -60.86 82.88 12/17/2021 03:41:07 -73.82, -60.96 82.86 3.46 26
8 12/19/2021 22:25:33 73.79,-162.02 97.18 12/19/2021 22:24:48 73.77,-161.99 97.17 1.83 45
9 12/19/2021 23:15:00 -73.85, 5.48 82.76 12/19/2021 23:15:28 -73.85, 5.52 82.76 1.04 28
10 12/22/2021 17:59:50 73.79, -95.60 97.20 12/22/2021 17:59:08 73.80, -95.52 97.21 2.43 42
11 12/22/2021 18:49:17 -73.85, 71.92 82.75 12/22/2021 18:49:49 -73.83, 71.87 82.77 2.88 32



Historial Predications of SNOs between AQUA and METOP-B
